クリステンセン彗星

411P/Christensen (2021)

English version
Home page
Updated on May 4, 2021

---------------------------------------------------------------------

・ プロフィール

符号 411P/2020 W3
検出日 2020年11月17日
検出光度 21.7等
検出者 E. Schwab (Egelsbach, Germany)

・ 写真集

・ 軌道要素

Epoch 2021 Jan. 26.0 TT = JDT 2459240.5
T 2021 Jan. 24.45493 TT                                 Rudenko
q   2.4387990            (2000.0)            P               Q
n   0.07021721     Peri.   46.67841     -0.54778019     -0.80998858
a   5.8188926      Node    77.67537     +0.69210057     -0.57935997
e   0.5808826      Incl.   12.37779     +0.47003582     -0.09088740
P  14.0
From 229 observations 2007 Jan. 17-2021 Apr. 16, mean residual 0".9.

・ 光度変化

        m1 = 10.5 + 5 logΔ + 20.0 log r

---------------------------------------------------------------------

軌道要素はM.P.E.C. 2021-J28に掲載されたものです。
光度グラフはComet for Windowsで作成したものです。

---------------------------------------------------------------------

Copyright(C) Seiichi Yoshida (comet@aerith.net). All rights reserved.